sat.trackr.live / text

‹ back to catalog

STARLINK-36517

NORAD 67454 · 2026-008K

PAYLOAD ACTIVE UNKNOWN

§ Identity

Operator
Country
US
Launch date
2026-01-14
Launch site
AFETR
Launch vehicle
Mass (kg)
RCS (m²)

Purposes: comms

External: N2YO · Heavens-Above · Gunter

§ Orbital elements

Epoch: 2026-09-19T12:32:49.875936Z

Period
94.27 min
Inclination
42.9993°
Eccentricity
0.0000536
Mean motion
15.27583345 rev/d
Perigee alt
482.7 km
Apogee alt
483.4 km
Semi-major
6,861.2 km
B*
5.1226e-4
RAAN
190.8169°
Arg perigee
317.0263°
Mean anomaly
43.0547°
Rev number
3,921

§ Raw data

STARLINK-365171 67454U 26008K   26262.52279949  .00013862  00000+0  51226-3 0  99952 67454  42.9993 190.8169 0000536 317.0263  43.0547 15.27583345 39215

JSON: /api/v1/satellites/67454 · /tle

For live sub-satellite position, see the globe view (requires WebGL).

§ Visibility from observer

Set your observer location to see the next 7 days of passes ≥ 10°. The values pass through the URL so the page stays shareable.

No JS? Fill the form by hand. The geolocation button needs JavaScript.